Weather History for KORE - December, 2013

Change the Weather History Date:

Wednesday, December 18, 2013

  Actual Average Record
Temperature  
Mean Temperature 18 °F -  
Max Temperature 28 °F 34 °F 52 °F (2006)
Min Temperature 9 °F 17 °F -7 °F (2007)
Degree Days  
Heating Degree Days 46    
Moisture  
Dew Point 13 °F    
Average Humidity 82    
Maximum Humidity 100    
Minimum Humidity 63    
Precipitation  
Precipitation 0.00 in - - ()
Sea Level Pressure  
Sea Level Pressure 30.01 in    
Wind  
Wind Speed 5 mph (West)    
Max Wind Speed 12 mph    
Max Gust Speed 17 mph    
Visibility 8 miles    
Events      
Averages and records for this station are not official NWS values.
T = Trace of Precipitation, MM = Missing Value Source: NWS Daily Summary

Daily Weather History Graph

Daily Weather History Graph

Search for Another Location

Airport or City:

Trip Planner

Search our weather history database for the weather conditions in past years. The results will help you decide how hot, cold, wet, or windy it might be!

Date:

Astronomy

Dec. 18, 2013 Rise Set
Actual Time 7:14 AM EST 4:17 PM EST
Civil Twilight 6:42 AM EST 4:49 PM EST
Nautical Twilight 6:06 AM EST 5:25 PM EST
Astronomical Twilight 5:32 AM EST 5:59 PM EST
Moon 5:48 PM EST (12/18) 7:50 AM EST (12/18)
Length of Visible Light 10h 07m
Length of Day
9h 03m
Full, 98% of the Moon is Illuminated
Dec 18
Full
Dec 25
Last Quarter
Jan 1
New
Jan 7
First Quarter
Jan 15
Full

Hourly Weather History & Observations

Time (EST) Temp. Windchill Dew Point Humidity Pressure Visibility Wind Dir Wind Speed Gust Speed Precip Events Conditions
12:52 AM 12.9 °F 3.8 °F 8.1 °F 81% 29.97 in 10.0 mi NNW 5.8 mph - N/A   Overcast
1:52 AM 12.9 °F 1.6 °F 9.0 °F 84% 29.97 in 10.0 mi NW 8.1 mph - N/A   Overcast
2:52 AM 14.0 °F 3.9 °F 9.0 °F 80% 29.96 in 10.0 mi NW 6.9 mph - N/A   Overcast
3:52 AM 15.1 °F 6.4 °F 10.0 °F 80% 29.96 in 10.0 mi NW 5.8 mph - N/A   Overcast
4:52 AM 16.0 °F 8.8 °F 10.9 °F 81% 29.96 in 10.0 mi NNW 4.6 mph - N/A   Overcast
5:52 AM 15.1 °F - 10.9 °F 84% 29.97 in 10.0 mi Calm Calm - N/A   Overcast
6:52 AM 14.0 °F - 10.0 °F 84% 29.96 in 10.0 mi Calm Calm - N/A   Scattered Clouds
7:52 AM 12.9 °F 0.7 °F 9.0 °F 84% 29.98 in 10.0 mi NW 9.2 mph - N/A   Clear
8:52 AM 16.0 °F 7.4 °F 10.0 °F 77% 29.99 in 10.0 mi North 5.8 mph - N/A   Scattered Clouds
9:52 AM 19.9 °F 9.3 °F 12.0 °F 71% 29.98 in 10.0 mi NNW 9.2 mph - N/A   Clear
10:52 AM 23.0 °F - 15.1 °F 72% 29.96 in 10.0 mi Calm Calm - N/A   Clear
11:52 AM 28.0 °F 20.8 °F 17.1 °F 63% 29.96 in 10.0 mi West 6.9 mph - N/A   Clear
12:52 PM 28.9 °F 19.2 °F 18.0 °F 64% 29.95 in 10.0 mi West 11.5 mph - N/A   Clear
1:52 PM 28.9 °F 20.4 °F 18.0 °F 64% 29.95 in 10.0 mi West 9.2 mph - N/A   Partly Cloudy
2:52 PM 28.9 °F 22.8 °F 19.0 °F 67% 29.97 in 10.0 mi Variable 5.8 mph 17.3 mph N/A   Partly Cloudy
3:52 PM 27.0 °F 19.5 °F 18.0 °F 69% 29.99 in 10.0 mi West 6.9 mph - N/A   Clear
4:52 PM 26.1 °F 17.6 °F 17.1 °F 69% 30.01 in 10.0 mi West 8.1 mph - N/A   Clear
5:52 PM 23.0 °F 13.9 °F 17.1 °F 78% 30.03 in 10.0 mi WSW 8.1 mph - N/A   Clear
6:52 PM 21.0 °F 16.2 °F 17.1 °F 85% 30.05 in 10.0 mi SSE 3.5 mph - N/A   Mostly Cloudy
7:52 PM 17.1 °F 11.7 °F 15.1 °F 92% 30.06 in 8.0 mi South 3.5 mph - N/A   Scattered Clouds
8:52 PM 12.9 °F - 12.0 °F 96% 30.07 in 7.0 mi Calm Calm - N/A   Partly Cloudy
9:26 PM 12.0 °F - 10.9 °F 95% 30.04 in 1.8 mi Calm Calm - N/A   Clear
9:28 PM 10.9 °F - 10.0 °F 96% 30.04 in 1.0 mi Calm Calm - N/A   Clear
9:42 PM 15.1 °F 6.4 °F 10.9 °F 84% 30.04 in 1.8 mi SSE 5.8 mph - N/A   Clear
9:44 PM 15.1 °F 7.7 °F 12.0 °F 88% 30.04 in 3.0 mi SSE 4.6 mph - N/A   Clear
9:52 PM 10.0 °F 1.8 °F 10.0 °F 100% 30.08 in 7.0 mi SSE 4.6 mph - N/A   Partly Cloudy
10:13 PM 9.0 °F - 8.1 °F 96% 30.05 in 1.5 mi Calm Calm - N/A   Mostly Cloudy
10:20 PM 10.9 °F 2.9 °F 9.0 °F 92% 30.05 in 1.2 mi SW 4.6 mph - N/A   Overcast
10:22 PM 10.9 °F 2.9 °F 9.0 °F 92% 30.05 in 2.0 mi SW 4.6 mph - N/A   Overcast
10:29 PM 10.9 °F 1.4 °F 9.0 °F 92% 30.05 in 8.0 mi SSW 5.8 mph - N/A   Overcast
10:52 PM 21.0 °F 9.9 °F 17.1 °F 85% 30.08 in 10.0 mi SSW 10.4 mph - N/A   Overcast
11:52 PM 19.0 °F 10.0 °F 16.0 °F 88% 30.07 in 10.0 mi SSW 6.9 mph - N/A   Partly Cloudy